ELO006 EPKT-EPRZ

Flight info

Callsign ELO006
Flight time 0h 34m
Altitude 19000
Route KURON T709 KOTEK L981 ETITI
Aircraft DH8D/M-SDE2E3FGRY/H

Departure

Time 2026-04-26 18:03
Airport Katowice Wojciech Korfanty International Airport (EPKT)

Arrival

Time 2026-04-26 18:37
Airport Rzeszów-Jasionka Airport (EPRZ)
Time Latitude Longitude Altitude Speed Heading
2026-04-26 17:42 50.47180 19.07408 984 ft 0 kts 180°
2026-04-26 17:51 50.47187 19.07408 984 ft 2 kts 180°
2026-04-26 17:51 50.47202 19.07408 984 ft 2 kts 180°
2026-04-26 17:52 50.47212 19.07408 984 ft 1 kts 180°
2026-04-26 17:52 50.47226 19.07402 983 ft 2 kts 144°
2026-04-26 17:52 50.47235 19.07384 983 ft 2 kts 109°
2026-04-26 17:52 50.47237 19.07368 983 ft 0 kts 89°
2026-04-26 17:56 50.47236 19.07389 983 ft 5 kts 92°
2026-04-26 17:57 50.47235 19.07575 985 ft 13 kts 90°
2026-04-26 17:57 50.47235 19.07738 985 ft 15 kts 90°
2026-04-26 17:57 50.47235 19.07932 985 ft 19 kts 90°
2026-04-26 17:57 50.47234 19.08125 985 ft 16 kts 89°
2026-04-26 17:58 50.47233 19.08620 987 ft 18 kts 89°
2026-04-26 17:59 50.47231 19.09066 995 ft 17 kts 91°
2026-04-26 17:59 50.47231 19.09238 995 ft 14 kts 89°
2026-04-26 17:59 50.47237 19.09358 997 ft 8 kts 59°
2026-04-26 17:59 50.47287 19.09386 997 ft 8 kts
2026-04-26 18:00 50.47343 19.09388 995 ft 8 kts
2026-04-26 18:00 50.47407 19.09389 993 ft 9 kts
2026-04-26 18:00 50.47461 19.09390 991 ft 4 kts
2026-04-26 18:00 50.47481 19.09391 990 ft 0 kts
2026-04-26 18:01 50.47487 19.09391 990 ft 0 kts
2026-04-26 18:01 50.47496 19.09392 989 ft 5 kts
2026-04-26 18:01 50.47555 19.09393 989 ft 10 kts 357°
2026-04-26 18:01 50.47600 19.09363 988 ft 6 kts 290°
2026-04-26 18:02 50.47599 19.09295 987 ft 5 kts 269°
2026-04-26 18:02 50.47599 19.09290 987 ft 0 kts 270°
2026-04-26 18:02 50.47599 19.09216 986 ft 32 kts 271°
2026-04-26 18:03 50.47600 19.08382 983 ft 115 kts 270°
2026-04-26 18:03 50.47603 19.06859 1043 ft 156 kts 272°
2026-04-26 18:03 50.47631 19.05226 1776 ft 141 kts 282°
2026-04-26 18:03 50.47719 19.03718 2394 ft 140 kts 281°
2026-04-26 18:04 50.47818 19.02210 2915 ft 143 kts 282°
2026-04-26 18:04 50.47893 19.00654 3374 ft 144 kts 278°
2026-04-26 18:04 50.47916 18.99134 3877 ft 143 kts 277°
2026-04-26 18:05 50.47945 18.95876 4585 ft 160 kts 276°
2026-04-26 18:05 50.47980 18.94103 4909 ft 169 kts 277°
2026-04-26 18:05 50.48215 18.92306 5308 ft 168 kts 309°
2026-04-26 18:05 50.49204 18.91540 5658 ft 169 kts
2026-04-26 18:06 50.50232 18.92547 5917 ft 190 kts 54°
2026-04-26 18:06 50.50748 18.94488 6338 ft 199 kts 66°
2026-04-26 18:06 50.51162 18.96568 6852 ft 201 kts 68°
2026-04-26 18:06 50.51522 18.98686 7359 ft 203 kts 69°
2026-04-26 18:07 50.51850 19.00847 7849 ft 206 kts 70°
2026-04-26 18:07 50.52153 19.03054 8364 ft 208 kts 70°
2026-04-26 18:07 50.52435 19.05264 8875 ft 209 kts 70°
2026-04-26 18:07 50.52616 19.06769 9206 ft 211 kts 71°
2026-04-26 18:08 50.52960 19.09768 9890 ft 212 kts 70°
2026-04-26 18:08 50.53216 19.12082 10360 ft 216 kts 70°
2026-04-26 18:08 50.53468 19.14409 10846 ft 217 kts 70°
2026-04-26 18:08 50.53720 19.16757 11248 ft 225 kts 69°
2026-04-26 18:09 50.53991 19.19248 11492 ft 239 kts 70°
2026-04-26 18:09 50.54268 19.21871 11853 ft 249 kts 70°
2026-04-26 18:09 50.54551 19.24609 12211 ft 256 kts 70°
2026-04-26 18:09 50.54834 19.27403 12612 ft 262 kts 70°
2026-04-26 18:10 50.55120 19.30243 13044 ft 266 kts 70°
2026-04-26 18:10 50.55406 19.33111 13474 ft 269 kts 70°
2026-04-26 18:10 50.55694 19.36020 13926 ft 271 kts 70°
2026-04-26 18:10 50.55982 19.38944 14366 ft 273 kts 69°
2026-04-26 18:11 50.56276 19.41921 14816 ft 274 kts 69°
2026-04-26 18:11 50.56565 19.44852 15242 ft 275 kts 69°
2026-04-26 18:11 50.56856 19.47804 15659 ft 276 kts 69°
2026-04-26 18:11 50.57150 19.50823 16095 ft 277 kts 69°
2026-04-26 18:12 50.57437 19.53787 16508 ft 277 kts 69°
2026-04-26 18:12 50.57656 19.56827 16890 ft 287 kts 78°
2026-04-26 18:12 50.57449 19.59989 17258 ft 296 kts 88°
2026-04-26 18:12 50.57118 19.63180 17635 ft 296 kts 88°
2026-04-26 18:13 50.56785 19.66363 17997 ft 297 kts 89°
2026-04-26 18:13 50.56446 19.69587 18342 ft 297 kts 89°
2026-04-26 18:13 50.56111 19.72774 18681 ft 298 kts 89°
2026-04-26 18:13 50.55889 19.74893 18904 ft 298 kts 89°
2026-04-26 18:14 50.55424 19.79231 19171 ft 308 kts 90°
2026-04-26 18:14 50.55059 19.82617 19227 ft 320 kts 90°
2026-04-26 18:14 50.54689 19.86104 19242 ft 333 kts 90°
2026-04-26 18:14 50.54298 19.89783 19244 ft 346 kts 91°
2026-04-26 18:15 50.53894 19.93570 19243 ft 357 kts 91°
2026-04-26 18:15 50.53483 19.97417 19240 ft 367 kts 91°
2026-04-26 18:15 50.53056 20.01405 19240 ft 375 kts 91°
2026-04-26 18:15 50.52619 20.05470 19235 ft 382 kts 91°
2026-04-26 18:16 50.52174 20.09597 19235 ft 387 kts 91°
2026-04-26 18:16 50.51261 20.18041 19233 ft 396 kts 91°
2026-04-26 18:16 50.50798 20.22305 19230 ft 399 kts 91°
2026-04-26 18:17 50.50332 20.26586 19228 ft 399 kts 91°
2026-04-26 18:17 50.49862 20.30884 19226 ft 399 kts 91°
2026-04-26 18:17 50.49398 20.35142 19225 ft 399 kts 91°
2026-04-26 18:17 50.48896 20.39408 19226 ft 402 kts 94°
2026-04-26 18:18 50.48267 20.43711 19230 ft 403 kts 95°
2026-04-26 18:18 50.47626 20.47984 19230 ft 403 kts 95°
2026-04-26 18:18 50.46989 20.52237 19131 ft 405 kts 95°
2026-04-26 18:18 50.46350 20.56501 18863 ft 400 kts 95°
2026-04-26 18:19 50.45718 20.60739 18549 ft 399 kts 95°
2026-04-26 18:19 50.45089 20.64955 18238 ft 397 kts 94°
2026-04-26 18:19 50.44465 20.69132 17930 ft 396 kts 95°
2026-04-26 18:19 50.43837 20.73338 17627 ft 394 kts 95°
2026-04-26 18:20 50.43214 20.77493 17317 ft 393 kts 95°
2026-04-26 18:20 50.42595 20.81622 17014 ft 391 kts 95°
2026-04-26 18:20 50.41977 20.85734 16712 ft 389 kts 96°
2026-04-26 18:20 50.41560 20.88497 16508 ft 388 kts 96°
2026-04-26 18:21 50.40739 20.93933 16102 ft 386 kts 96°
2026-04-26 18:21 50.40121 20.98017 15816 ft 383 kts 95°
2026-04-26 18:21 50.39511 21.02039 15524 ft 382 kts 96°
2026-04-26 18:21 50.38897 21.06093 15226 ft 380 kts 95°
2026-04-26 18:22 50.38286 21.10076 14925 ft 378 kts 96°
2026-04-26 18:22 50.37676 21.14055 14642 ft 376 kts 96°
2026-04-26 18:22 50.37065 21.18033 14349 ft 374 kts 95°
2026-04-26 18:22 50.36461 21.21978 14049 ft 372 kts 96°
2026-04-26 18:23 50.35860 21.25869 13778 ft 370 kts 96°
2026-04-26 18:23 50.35260 21.29757 13482 ft 368 kts 96°
2026-04-26 18:23 50.34661 21.33622 13198 ft 363 kts 96°
2026-04-26 18:23 50.34071 21.37423 12913 ft 357 kts 96°
2026-04-26 18:24 50.33485 21.41192 12634 ft 352 kts 96°
2026-04-26 18:24 50.32917 21.44845 12362 ft 348 kts 96°
2026-04-26 18:24 50.32345 21.48503 12097 ft 343 kts 96°
2026-04-26 18:24 50.31778 21.52124 11821 ft 340 kts 96°
2026-04-26 18:25 50.31226 21.55651 11555 ft 336 kts 96°
2026-04-26 18:25 50.30671 21.59183 11295 ft 333 kts 96°
2026-04-26 18:25 50.30119 21.62691 11034 ft 329 kts 97°
2026-04-26 18:25 50.29579 21.66113 10771 ft 324 kts 98°
2026-04-26 18:26 50.29053 21.69433 10512 ft 307 kts 97°
2026-04-26 18:26 50.28548 21.72622 10290 ft 299 kts 97°
2026-04-26 18:26 50.28050 21.75763 10038 ft 300 kts 97°
2026-04-26 18:26 50.27548 21.78931 9827 ft 301 kts 97°
2026-04-26 18:27 50.27044 21.82106 9585 ft 301 kts 98°
2026-04-26 18:27 50.26541 21.85260 9352 ft 302 kts 98°
2026-04-26 18:27 50.26036 21.88420 9120 ft 298 kts 98°
2026-04-26 18:27 50.25541 21.91506 8885 ft 291 kts 98°
2026-04-26 18:28 50.25048 21.94570 8644 ft 285 kts 98°
2026-04-26 18:28 50.24567 21.97559 8443 ft 286 kts 98°
2026-04-26 18:28 50.24086 22.00550 8234 ft 288 kts 98°
2026-04-26 18:28 50.23598 22.03577 7989 ft 287 kts 98°
2026-04-26 18:29 50.23109 22.06604 7772 ft 285 kts 98°
2026-04-26 18:29 50.22628 22.09573 7557 ft 284 kts 98°
2026-04-26 18:29 50.22140 22.12581 7329 ft 283 kts 98°
2026-04-26 18:29 50.21657 22.15551 7139 ft 282 kts 99°
2026-04-26 18:30 50.21179 22.18487 6895 ft 281 kts 98°
2026-04-26 18:30 50.20698 22.21440 6521 ft 282 kts 99°
2026-04-26 18:30 50.20213 22.24404 6222 ft 278 kts 98°
2026-04-26 18:30 50.19743 22.27265 6026 ft 273 kts 98°
2026-04-26 18:31 50.19271 22.30122 5802 ft 267 kts 99°
2026-04-26 18:31 50.18483 22.32696 5541 ft 270 kts 128°
2026-04-26 18:31 50.16938 22.34359 5367 ft 271 kts 154°
2026-04-26 18:31 50.15193 22.35414 5148 ft 269 kts 163°
2026-04-26 18:32 50.13399 22.36093 4932 ft 261 kts 172°
2026-04-26 18:32 50.11663 22.35949 4710 ft 242 kts 207°
2026-04-26 18:32 50.10461 22.34416 4577 ft 213 kts 246°
2026-04-26 18:32 50.10161 22.32324 4303 ft 193 kts 287°
2026-04-26 18:33 50.10468 22.30362 4029 ft 189 kts 285°
2026-04-26 18:33 50.10545 22.28302 3725 ft 192 kts 278°
2026-04-26 18:33 50.10595 22.26238 3439 ft 189 kts 280°
2026-04-26 18:33 50.10652 22.24191 3159 ft 186 kts 279°
2026-04-26 18:34 50.10684 22.22218 2895 ft 180 kts 278°
2026-04-26 18:34 50.10717 22.20315 2651 ft 174 kts 278°
2026-04-26 18:34 50.10745 22.18496 2438 ft 159 kts 279°
2026-04-26 18:34 50.10769 22.16845 2210 ft 149 kts 279°
2026-04-26 18:35 50.10797 22.15288 2034 ft 141 kts 279°
2026-04-26 18:35 50.10824 22.13793 1839 ft 135 kts 279°
2026-04-26 18:35 50.10849 22.12362 1686 ft 133 kts 279°
2026-04-26 18:35 50.10871 22.10947 1497 ft 128 kts 278°
2026-04-26 18:36 50.10889 22.09588 1317 ft 124 kts 277°
2026-04-26 18:36 50.10912 22.08255 1145 ft 124 kts 276°
2026-04-26 18:36 50.10920 22.06912 1018 ft 123 kts 275°
2026-04-26 18:36 50.10939 22.05558 851 ft 124 kts 275°
2026-04-26 18:37 50.10961 22.04222 682 ft 123 kts 274°
2026-04-26 18:37 50.10982 22.02997 679 ft 90 kts 272°
2026-04-26 18:37 50.10991 22.02317 683 ft 41 kts 271°
2026-04-26 18:37 50.10995 22.01889 686 ft 43 kts 271°
2026-04-26 18:38 50.11004 22.01459 689 ft 32 kts 273°
2026-04-26 18:38 50.11043 22.01174 689 ft 21 kts 294°
2026-04-26 18:38 50.11097 22.01020 689 ft 11 kts 301°
2026-04-26 18:38 50.11142 22.00976 689 ft 6 kts 10°
2026-04-26 18:39 50.11169 22.01026 689 ft 7 kts 81°
2026-04-26 18:39 50.11169 22.01164 689 ft 17 kts 90°
2026-04-26 18:39 50.11166 22.01368 692 ft 19 kts 91°
2026-04-26 18:39 50.11166 22.01593 689 ft 21 kts 90°
2026-04-26 18:40 50.11161 22.01826 689 ft 21 kts 92°
2026-04-26 18:40 50.11158 22.02059 688 ft 22 kts 91°
2026-04-26 18:40 50.11154 22.02311 686 ft 22 kts 90°
2026-04-26 18:40 50.11152 22.02531 685 ft 19 kts 90°
2026-04-26 18:41 50.11152 22.02690 682 ft 8 kts 74°
2026-04-26 18:41 50.11191 22.02736 683 ft 6 kts
2026-04-26 18:41 50.11244 22.02737 684 ft 9 kts
2026-04-26 18:41 50.11301 22.02749 685 ft 7 kts 22°
2026-04-26 18:42 50.11346 22.02783 686 ft 6 kts 17°
2026-04-26 18:42 50.11385 22.02788 687 ft 4 kts
2026-04-26 18:42 50.11407 22.02788 687 ft 2 kts
2026-04-26 18:42 50.11417 22.02788 687 ft 0 kts
2026-04-26 18:43 50.11420 22.02789 687 ft 0 kts
2026-04-26 18:43 50.11421 22.02789 687 ft 0 kts